Weather History for KLCG - March, 2013

Change the Weather History Date:

Sunday, March 3, 2013

  Actual Average (KOFK) Record (KOFK)
Temperature  
Mean Temperature 30 °F 32 °F  
Max Temperature 35 °F 43 °F 77 °F (1921)
Min Temperature 24 °F 22 °F -14 °F (2014)
Degree Days  
Heating Degree Days 36 33  
Month to date heating degree days 100  
Since 1 July heating degree days 5193  
Cooling Degree Days 0 0  
Month to date cooling degree days 0  
Year to date cooling degree days 0  
Moisture  
Dew Point 27 °F    
Average Humidity 85    
Maximum Humidity 93    
Minimum Humidity 79    
Precipitation  
Precipitation 0.00 in 0.04 in 0.61 in (1979)
Month to date precipitation 0.11  
Year to date precipitation 1.46  
Snow  
Snow 0.00 in 0.20 in - ()
Month to date snowfall 0.6  
Since 1 July snowfall 23.4  
Snow Depth -    
Sea Level Pressure  
Sea Level Pressure 29.84 in    
Wind  
Wind Speed 10 mph (SSE)    
Max Wind Speed 20 mph    
Max Gust Speed 24 mph    
Visibility 8 miles    
Events      
T = Trace of Precipitation, MM = Missing Value Source: NWS Daily Summary

Daily Weather History Graph

Daily Weather History Graph

Search for Another Location

Airport or City:

Trip Planner

Search our weather history database for the weather conditions in past years. The results will help you decide how hot, cold, wet, or windy it might be!

Date:

Astronomy

Mar. 03, 2013 Rise Set
Actual Time 6:59 AM CST 6:20 PM CST
Civil Twilight 6:31 AM CST 6:48 PM CST
Nautical Twilight 5:59 AM CST 7:21 PM CST
Astronomical Twilight 5:26 AM CST 7:53 PM CST
Moon 12:07 AM CST (3/3) 10:08 AM CST (3/3)
Length of Visible Light 12h 17m
Length of Day
11h 21m
Waning Gibbous, 63% of the Moon is Illuminated
Mar 3
Waning Gibbous
Mar 4
Last Quarter
Mar 11
New
Mar 19
First Quarter
Mar 27
Full

Hourly Weather History & Observations

Time (CST) Temp. Windchill Dew Point Humidity Pressure Visibility Wind Dir Wind Speed Gust Speed Precip Events Conditions
12:15 AM 29.1 °F 20.6 °F 25.2 °F 85% 30.02 in 10.0 mi SSE 9.2 mph - N/A   Scattered Clouds
12:35 AM 28.2 °F 20.2 °F 24.8 °F 87% 30.01 in 10.0 mi South 8.1 mph - N/A   Scattered Clouds
12:55 AM 28.0 °F 18.6 °F 24.6 °F 87% 30.00 in 10.0 mi SSE 10.4 mph - N/A   Mostly Cloudy
1:15 AM 27.5 °F 19.3 °F 24.3 °F 88% 29.99 in 10.0 mi South 8.1 mph - N/A   Mostly Cloudy
1:35 AM 27.5 °F 19.3 °F 24.3 °F 88% 29.99 in 10.0 mi South 8.1 mph - N/A   Scattered Clouds
1:55 AM 27.5 °F 21.1 °F 23.9 °F 86% 29.98 in 10.0 mi South 5.8 mph - N/A   Clear
2:15 AM 27.1 °F 18.9 °F 23.9 °F 88% 29.97 in 10.0 mi South 8.1 mph - N/A   Clear
2:35 AM 26.6 °F 21.2 °F 23.5 °F 88% 29.96 in 10.0 mi South 4.6 mph - N/A   Clear
2:55 AM 26.6 °F 20.0 °F 23.7 °F 89% 29.96 in 10.0 mi South 5.8 mph - N/A   Clear
3:15 AM 26.2 °F 20.7 °F 23.4 °F 89% 29.96 in 10.0 mi South 4.6 mph - N/A   Clear
3:35 AM 26.4 °F 18.0 °F 23.5 °F 89% 29.95 in 10.0 mi SSE 8.1 mph - N/A   Clear
3:55 AM 26.1 °F 16.8 °F 23.2 °F 89% 29.94 in 10.0 mi SSE 9.2 mph - N/A   Clear
4:15 AM 26.1 °F 18.4 °F 23.5 °F 90% 29.94 in 10.0 mi SSE 6.9 mph - N/A   Clear
4:35 AM 25.7 °F 17.1 °F 23.0 °F 89% 29.93 in 10.0 mi SSE 8.1 mph - N/A   Clear
4:55 AM 25.5 °F 19.9 °F 23.0 °F 90% 29.93 in 7.0 mi SSE 4.6 mph - N/A   Clear
5:15 AM 25.3 °F 19.7 °F 23.0 °F 91% 29.94 in 7.0 mi SSE 4.6 mph - N/A   Clear
5:35 AM 25.3 °F 19.7 °F 23.0 °F 91% 29.93 in 7.0 mi SSE 4.6 mph - N/A   Clear
5:55 AM 25.0 °F 20.7 °F 22.8 °F 91% 29.93 in 7.0 mi SSE 3.5 mph - N/A   Clear
6:15 AM 24.8 °F 19.1 °F 22.8 °F 92% 29.92 in 7.0 mi SSE 4.6 mph - N/A   Clear
6:35 AM 24.8 °F 16.9 °F 22.8 °F 92% 29.92 in 5.0 mi SSE 6.9 mph - N/A   Clear
6:55 AM 24.8 °F 20.5 °F 22.8 °F 92% 29.92 in 5.0 mi South 3.5 mph - N/A   Clear
7:15 AM 24.8 °F 15.3 °F 22.8 °F 92% 29.91 in 5.0 mi SE 9.2 mph - N/A   Clear
7:35 AM 24.8 °F 16.9 °F 23.0 °F 93% 29.91 in 5.0 mi SE 6.9 mph - N/A   Clear
7:55 AM 24.8 °F 15.3 °F 23.0 °F 93% 29.91 in 5.0 mi SE 9.2 mph - N/A   Clear
8:15 AM 25.7 °F 16.4 °F 23.4 °F 91% 29.91 in 5.0 mi SE 9.2 mph - N/A   Clear
8:35 AM 26.2 °F 17.1 °F 23.5 °F 90% 29.91 in 5.0 mi SSE 9.2 mph - N/A   Clear
8:55 AM 27.1 °F 18.2 °F 23.9 °F 88% 29.91 in 5.0 mi SSE 9.2 mph - N/A   Clear
9:15 AM 28.2 °F 18.3 °F 24.4 °F 86% 29.90 in 5.0 mi SSE 11.5 mph - N/A   Clear
9:35 AM 29.1 °F 18.9 °F 24.8 °F 84% 29.89 in 7.0 mi SSE 12.7 mph - N/A   Clear
9:55 AM 29.7 °F 19.6 °F 25.5 °F 85% 29.88 in 7.0 mi SSE 12.7 mph - N/A   Clear
10:15 AM 30.4 °F 21.5 °F 26.4 °F 85% 29.88 in 5.0 mi SSE 10.4 mph - N/A   Clear
10:35 AM 31.1 °F 23.1 °F 26.8 °F 84% 29.88 in 7.0 mi SSE 9.2 mph - N/A   Clear
10:55 AM 31.8 °F 23.3 °F 27.3 °F 83% 29.88 in 7.0 mi SSE 10.4 mph - N/A   Scattered Clouds
11:15 AM 32.0 °F 23.6 °F 27.5 °F 83% 29.86 in 7.0 mi SSE 10.4 mph - N/A   Scattered Clouds
11:35 AM 32.5 °F 23.7 °F 28.2 °F 84% 29.85 in 5.0 mi SE 11.5 mph - N/A   Haze
11:55 AM 33.1 °F 24.4 °F 28.4 °F 83% 29.84 in 7.0 mi SE 11.5 mph - N/A   Mostly Cloudy
12:15 PM 33.8 °F 25.3 °F 28.6 °F 81% 29.84 in 7.0 mi SE 11.5 mph - N/A   Mostly Cloudy
12:35 PM 34.2 °F 25.2 °F 28.9 °F 81% 29.83 in 7.0 mi SE 12.7 mph - N/A   Mostly Cloudy
12:55 PM 34.3 °F 25.9 °F 29.1 °F 81% 29.82 in 7.0 mi SE 11.5 mph - N/A   Mostly Cloudy
1:15 PM 34.9 °F 25.7 °F 29.3 °F 80% 29.81 in 7.0 mi SE 13.8 mph - N/A   Mostly Cloudy
1:35 PM 35.6 °F 27.1 °F 29.7 °F 79% 29.80 in 7.0 mi SE 12.7 mph 18.4 mph N/A   Scattered Clouds
1:55 PM 35.4 °F 26.8 °F 29.7 °F 80% 29.78 in 7.0 mi SE 12.7 mph - N/A   Clear
2:15 PM 35.2 °F 26.2 °F 29.5 °F 80% 29.78 in 7.0 mi SE 13.8 mph 18.4 mph N/A   Scattered Clouds
2:35 PM 35.6 °F 27.1 °F 29.7 °F 79% 29.78 in 7.0 mi SE 12.7 mph - N/A   Mostly Cloudy
2:55 PM 35.6 °F 28.6 °F 29.8 °F 80% 29.78 in 7.0 mi SE 9.2 mph - N/A   Overcast
3:15 PM 35.6 °F 26.6 °F 29.7 °F 79% 29.77 in 7.0 mi SE 13.8 mph 19.6 mph N/A   Overcast
3:35 PM 35.6 °F 27.5 °F 30.2 °F 81% 29.76 in 7.0 mi SE 11.5 mph 18.4 mph N/A   Overcast
3:55 PM 35.6 °F 26.2 °F 30.2 °F 81% 29.75 in 5.0 mi SE 15.0 mph - N/A   Haze
4:15 PM 35.6 °F 26.6 °F 30.0 °F 80% 29.74 in 5.0 mi SE 13.8 mph 18.4 mph N/A   Haze
4:35 PM 35.4 °F 26.8 °F 30.4 °F 82% 29.73 in 5.0 mi SE 12.7 mph - N/A   Haze
4:55 PM 35.2 °F 25.8 °F 30.0 °F 81% 29.71 in 7.0 mi ESE 15.0 mph - N/A   Overcast
5:15 PM 35.2 °F 26.6 °F 29.8 °F 81% 29.72 in 7.0 mi SSE 12.7 mph 24.2 mph N/A   Mostly Cloudy
5:35 PM 35.1 °F 26.9 °F 29.8 °F 81% 29.70 in 7.0 mi ESE 11.5 mph 21.9 mph N/A   Mostly Cloudy
5:55 PM 34.9 °F 25.7 °F 29.8 °F 82% 29.76 in 7.0 mi South 13.8 mph 17.3 mph N/A   Mostly Cloudy
6:35 PM 34.7 °F 24.7 °F 29.8 °F 82% 29.72 in 7.0 mi ESE 16.1 mph - N/A   Overcast
6:55 PM 34.3 °F 27.0 °F 29.3 °F 82% 29.74 in 7.0 mi SSE 9.2 mph 21.9 mph N/A   Overcast
7:15 PM 34.2 °F 25.2 °F 28.9 °F 81% 29.73 in 10.0 mi SE 12.7 mph 21.9 mph N/A   Overcast
7:35 PM 34.3 °F 25.5 °F 28.8 °F 80% 29.74 in 10.0 mi SE 12.7 mph - N/A   Overcast
7:55 PM 34.0 °F 25.5 °F 29.3 °F 83% 29.74 in 10.0 mi SE 11.5 mph - N/A   Overcast
8:15 PM 33.8 °F 24.8 °F 29.1 °F 83% 29.74 in 10.0 mi SE 12.7 mph - N/A   Mostly Cloudy
8:35 PM 33.6 °F 24.1 °F 28.9 °F 83% 29.74 in 10.0 mi SE 13.8 mph 18.4 mph N/A   Scattered Clouds
8:55 PM 33.3 °F 23.2 °F 29.1 °F 85% 29.73 in 10.0 mi SE 15.0 mph 19.6 mph N/A   Scattered Clouds
9:15 PM 33.3 °F 23.2 °F 28.8 °F 84% 29.72 in 10.0 mi SE 15.0 mph 19.6 mph N/A   Mostly Cloudy
9:35 PM 33.3 °F 22.8 °F 28.4 °F 82% 29.72 in 10.0 mi SE 16.1 mph 19.6 mph N/A   Overcast
9:55 PM 33.1 °F 22.2 °F 28.6 °F 84% 29.70 in 10.0 mi SE 17.3 mph 24.2 mph N/A   Overcast
10:15 PM 32.5 °F 21.5 °F 28.4 °F 85% 29.69 in 10.0 mi SE 17.3 mph - N/A   Mostly Cloudy
10:35 PM 32.2 °F 20.4 °F 28.0 °F 85% 29.68 in 10.0 mi SE 19.6 mph - N/A   Scattered Clouds
10:55 PM 32.0 °F 21.2 °F 27.9 °F 85% 29.68 in 10.0 mi SE 16.1 mph 23.0 mph N/A   Scattered Clouds
11:15 PM 32.0 °F 22.1 °F 28.0 °F 85% 29.68 in 10.0 mi SE 13.8 mph 19.6 mph N/A   Mostly Cloudy
11:35 PM 32.0 °F 23.0 °F 28.0 °F 85% 29.69 in 10.0 mi SE 11.5 mph - N/A   Overcast
11:55 PM 32.0 °F 23.0 °F 27.9 °F 85% 29.69 in 10.0 mi SE 11.5 mph - N/A   Mostly Cloudy